Terug naar catalogus

STARLINK-5997

ActiefCommunicatieSSO
NORAD 56327·PAYLOAD·🇺🇸 United States

Gelanceerd Apr 27, 2023 vanaf Vandenberg Space Force Base

Loading…

Volgende Passages (komende 24 uur)

TLE

VersSource: CelesTrak SupGP

Epoch: Sep 14, 2026, 22:23 UTC

1 56327C 23058L   26257.93312500  .00545310  00000+0  32879-1 0  2570
2 56327  97.2845 252.0423 0001338  85.7161 146.0142 15.10574777    14

Volg STARLINK-5997 in realtime met AllMySat

Download on the App Store